[[{"header":{"parameterUnit":"m.s-1","parameterCategory":1,"la1":30.2991,"la2":30.254,"lo1":-89.0895,"lo2":-89.0444,"dy":0.0017,"dx":0.0017,"nx":28,"ny":28,"refTime":"2024-03-07T09:00:00:Z","depth":0,"parameterNumber":2,"parameterNumberName":"U-component_of_WINDS"},"data":[0,0,0,0,0,0,0,0,0,0,0,0,0,0,0,0,0,0,0,0,0,0,0,0,0,0,0,0,0,0,0,0,0,0,0,0,0,0,0,0,0,0,0,0,0,0,0,0,0,0,0,0,0,0,0,0,0,0,-6.1404,-6.1405,0,-6.148,-6.148,-6.1481,-6.1461,-6.146,-6.1458,-6.1457,-6.1526,-6.1529,-6.1533,0,0,0,0,0,0,0,0,0,0,0,0,0,-6.1236,-6.1239,-6.1404,-6.1405,-6.1406,-6.1479,-6.148,-6.1481,-6.1462,-6.146,-6.1458,-6.1456,-6.1525,-6.1529,-6.1533,0,0,0,0,0,0,0,0,0,0,0,0,0,-6.131,-6.124,-6.1404,-6.1405,-6.1406,-6.1479,-6.148,-6.1482,-6.1462,-6.146,-6.1458,-6.1456,-6.1524,-6.1529,-6.1533,-6.1607,0,0,-6.1548,-6.155,0,0,0,0,0,0,0,0,-6.1305,-6.1316,-6.1404,-6.1405,-6.1407,-6.1459,-6.1446,-6.1524,-6.1463,-6.1441,-6.1457,-6.1454,-6.1505,-6.1511,-6.153,-6.161,-6.1613,-6.1548,-6.1551,-6.1553,-6.1555,0,0,0,0,0,0,0,-6.13,-6.1312,-6.1434,-6.1406,-6.1407,-6.14,-6.1408,-6.1461,-6.1484,-6.1442,-6.1441,-6.1451,-6.1505,-6.1525,-6.1531,-6.1614,-6.1548,-6.1553,-6.1556,-6.1557,-6.1757,-6.1759,0,0,0,0,0,0,-6.1295,-6.1308,-6.1431,-6.1436,-6.135,-6.1404,-6.1413,-6.1444,-6.1484,-6.1488,-6.1453,-6.145,-6.1518,-6.1526,-6.1534,-6.1621,-6.1553,-6.1558,-6.1561,-6.1755,-6.1757,-6.176,0,0,0,0,0,0,-6.1292,-6.1307,-6.1428,-6.1372,-6.1387,-6.141,-6.1444,-6.1447,-6.1467,-6.1491,-6.1494,-6.1469,-6.1517,-6.1527,-6.1589,-6.1623,-6.156,-6.1564,-6.1752,-6.1755,-6.1759,-6.1797,0,0,0,0,0,0,-6.1287,-6.1306,-6.1336,-6.1373,-6.139,-6.1485,-6.1447,-6.145,-6.1476,-6.1473,-6.1508,-6.1511,-6.1516,-6.1582,-6.1594,-6.1628,-6.1568,-6.1749,-6.1753,-6.1758,-6.1792,-6.1801,-6.1809,0,0,0,0,0,-6.1281,-6.1342,-6.1337,-6.1352,-6.1429,-6.1487,-6.1496,-6.1502,-6.1479,-6.1508,-6.1524,-6.151,-6.1618,-6.1589,-6.1602,-6.1638,-6.1746,-6.1752,-6.1757,-6.1789,-6.1799,-6.1808,0,0,0,0,0,0,-6.1305,-6.1347,-6.1342,-6.1417,-6.1449,-6.1484,-6.152,-6.1514,-6.1551,-6.1546,-6.155,-6.1557,-6.162,-6.1636,-6.1602,-6.1711,-6.1679,-6.1687,-6.1698,-6.1708,-6.1716,-6.1709,-6.1572,0,0,0,0,0,-6.132,-6.1366,-6.1399,-6.1462,-6.1479,-6.1497,-6.1523,-6.1525,-6.1557,-6.1569,-6.1589,-6.1618,-6.1659,-6.1685,-6.1723,-6.1796,-6.1801,-6.1827,-6.1835,-6.1842,-6.1848,-6.1885,-6.1896,-6.1778,-6.1778,-6.1778,0,0,-6.1349,-6.1378,-6.1406,-6.1468,-6.1493,-6.1538,-6.1508,-6.1557,-6.159,-6.1576,-6.1635,-6.1652,-6.1684,-6.1751,-6.1782,-6.1766,-6.1882,-6.1849,-6.1854,-6.1856,-6.1891,-6.1902,-6.1912,-6.1782,-6.1781,-6.178,0,0,-6.1425,-6.1453,-6.1507,-6.1534,-6.1573,-6.1585,-6.1598,-6.1634,-6.1644,-6.1706,-6.1695,-6.1733,-6.1803,-6.1826,-6.1847,-6.1933,-6.1921,-6.1946,-6.1986,-6.2022,-6.2032,-6.204,-6.2067,-6.2078,-6.1952,-6.1953,-6.1953,0,-6.1455,-6.1526,-6.1535,-6.1586,-6.1612,-6.1605,-6.1658,-6.1682,-6.1731,-6.1748,-6.1731,-6.1818,-6.184,-6.1911,-6.1932,-6.195,-6.1963,-6.194,-6.203,-6.2038,-6.2046,-6.2072,-6.2083,-6.1955,-6.1955,-6.1954,-6.1954,0,-6.1559,-6.1608,-6.1648,-6.1697,-6.1728,-6.178,-6.1795,-6.1825,-6.1825,-6.1838,-6.1898,-6.1925,-6.1968,-6.1986,-6.1985,-6.2056,-6.2045,-6.203,-6.1996,-6.206,-6.2084,-6.2095,-6.1959,-6.1958,-6.1957,-6.1956,0,0,-6.1649,-6.1706,-6.1719,-6.1741,-6.1785,-6.1821,-6.1872,-6.1916,-6.194,-6.1974,-6.2014,-6.2075,-6.206,-6.2084,-6.2087,-6.2119,-6.2182,-6.2099,-6.2099,-6.211,-6.2258,-6.2267,-6.2279,-6.2176,-6.2178,-6.2179,-6.2254,0,-6.1727,-6.1819,-6.1829,-6.1909,-6.1953,-6.1947,-6.1991,-6.202,-6.2034,-6.2071,-6.2086,-6.2127,-6.2107,-6.2121,-6.2153,-6.2167,-6.2211,-6.2162,-6.2209,-6.2211,-6.2198,-6.2292,-6.2303,-6.2372,-6.2264,-6.2266,-6.2267,0,-6.1828,-6.1868,-6.1953,-6.199,-6.2008,-6.2048,-6.2089,-6.2126,-6.2158,-6.2166,-6.2194,-6.2192,-6.2241,-6.2209,-6.2275,-6.2242,-6.2263,-6.2273,-6.2276,-6.2277,-6.224,-6.2293,-6.2395,-6.2404,-6.2283,-6.2282,-6.2281,0,-6.1882,-6.1956,-6.2017,-6.2036,-6.2081,-6.2108,-6.2128,-6.2159,-6.2185,-6.222,-6.2236,-6.2277,-6.2297,-6.2327,-6.2335,-6.2312,-6.24,-6.237,-6.2405,-6.2405,-6.2421,-6.2419,-6.2523,-6.244,-6.244,-6.2439,-6.2439,0,-6.1965,-6.2016,-6.2041,-6.2078,-6.2134,-6.2146,-6.2201,-6.2219,-6.2247,-6.2284,-6.2282,-6.2317,-6.2328,-6.2364,-6.2371,-6.2423,-6.2433,-6.2438,-6.2438,-6.2436,-6.2435,-6.2447,-6.2441,-6.2442,-6.2442,-6.2441,-6.2441,0,-6.2032,-6.2051,-6.2116,-6.2155,-6.2165,-6.2205,-6.2236,-6.227,-6.2285,-6.2332,-6.2344,-6.2365,-6.2408,-6.242,-6.2471,-6.2475,-6.2535,-6.2533,-6.2525,-6.2523,-6.2557,-6.2552,-6.2669,-6.2684,-6.2594,-6.2595,-6.2596,0,-6.2082,-6.2122,-6.2165,-6.2192,-6.2213,-6.2256,-6.2283,-6.2296,-6.2323,-6.2364,-6.2392,-6.2435,-6.2469,-6.2537,-6.2555,-6.2593,-6.259,-6.2628,-6.2595,-6.2591,-6.2586,-6.2582,-6.2585,-6.2633,-6.2634,-6.2635,-6.2636,0,-6.2168,-6.2176,-6.2216,-6.226,-6.2293,-6.2328,-6.2361,-6.2382,-6.2399,-6.243,-6.2474,-6.2502,-6.2554,-6.2595,-6.2634,-6.2651,-6.2645,-6.2647,-6.2656,-6.2652,-6.2645,-6.2646,-6.2538,-6.2643,-6.2642,-6.2641,-6.2641,-6.2641,-6.2226,-6.226,-6.2296,-6.2341,-6.2368,-6.2399,-6.2433,-6.2452,-6.2491,-6.2536,-6.2541,-6.2588,-6.2619,-6.2671,-6.269,-6.2726,-6.2714,-6.2729,-6.2732,-6.2734,-6.2735,-6.2642,-6.2733,-6.2733,-6.2733,-6.2733,-6.2733,0,-6.2308,-6.2332,-6.2373,-6.2421,-6.2456,-6.2451,-6.2487,-6.2515,-6.2558,-6.2589,-6.2624,-6.2674,-6.2714,-6.2737,-6.2776,-6.28,-6.2798,-6.2809,-6.2806,-6.2809,-6.2745,-6.2732,-6.281,-6.281,-6.281,-6.281,-6.281,-6.281,-6.2355,-6.2413,-6.2425,-6.2495,-6.2517,-6.2566,-6.2587,-6.2614,-6.2639,-6.2696,-6.2731,-6.2746,-6.2772,-6.2814,-6.2849,-6.2855,-6.2868,-6.288,-6.2883,-6.2822,-6.2814,-6.2806,-6.2793,-6.2884,-6.2884,-6.2944,-6.2945,-6.2945]},{"header":{"parameterUnit":"m.s-1","parameterCategory":1,"la1":30.2991,"la2":30.254,"lo1":-89.0895,"lo2":-89.0444,"dy":0.0017,"dx":0.0017,"nx":28,"ny":28,"refTime":"2024-03-07T09:00:00:Z","depth":0,"parameterNumber":3,"parameterNumberName":"V-component_of_WINDS"},"data":[0,0,0,0,0,0,0,0,0,0,0,0,0,0,0,0,0,0,0,0,0,0,0,0,0,0,0,0,0,0,0,0,0,0,0,0,0,0,0,0,0,0,0,0,0,0,0,0,0,0,0,0,0,0,0,0,0,0,4.3442,4.3441,0,4.3401,4.34,4.34,4.3344,4.3343,4.3343,4.3342,4.3297,4.3297,4.3296,0,0,0,0,0,0,0,0,0,0,0,0,0,4.3472,4.3472,4.3442,4.3441,4.3441,4.3401,4.34,4.34,4.3345,4.3343,4.3342,4.3341,4.3297,4.3297,4.3296,0,0,0,0,0,0,0,0,0,0,0,0,0,4.3448,4.3472,4.3442,4.3409,4.3405,4.3401,4.34,4.3399,4.3345,4.3343,4.3342,4.3341,4.3297,4.3297,4.3296,4.3321,0,0,4.3295,4.3295,0,0,0,0,0,0,0,0,4.3449,4.3447,4.3414,4.3411,4.3407,4.3376,4.3394,4.3373,4.3345,4.3368,4.3342,4.334,4.3324,4.3322,4.3317,4.3318,4.3317,4.3295,4.3294,4.3294,4.3294,0,0,0,0,0,0,0,4.3451,4.3448,4.3425,4.3414,4.3409,4.3395,4.339,4.339,4.3354,4.3366,4.3361,4.3357,4.3322,4.3317,4.3315,4.3316,4.3295,4.3294,4.3294,4.3294,4.3338,4.334,0,0,0,0,0,0,4.3458,4.345,4.3427,4.3424,4.3425,4.3396,4.339,4.3387,4.3354,4.3348,4.3359,4.3355,4.3319,4.3316,4.3314,4.3342,4.3294,4.3294,4.3293,4.3337,4.3339,4.334,0,0,0,0,0,0,4.3459,4.3456,4.3428,4.3436,4.3431,4.3397,4.3394,4.3387,4.3383,4.3349,4.3342,4.3361,4.3318,4.3314,4.332,4.3339,4.3294,4.3293,4.3335,4.3337,4.3339,4.3398,0,0,0,0,0,0,4.346,4.3457,4.3466,4.3437,4.3431,4.3436,4.3395,4.3388,4.3382,4.3377,4.3349,4.3343,4.3316,4.3321,4.332,4.3338,4.3293,4.3333,4.3336,4.3339,4.3394,4.3402,4.3408,0,0,0,0,0,4.3461,4.3483,4.3467,4.3464,4.3442,4.3437,4.3434,4.3404,4.3384,4.3393,4.3371,4.3344,4.3337,4.3322,4.332,4.3338,4.3332,4.3335,4.3338,4.3391,4.34,4.3408,0,0,0,0,0,0,4.3514,4.3478,4.346,4.3473,4.3459,4.3428,4.3438,4.3415,4.3405,4.3401,4.3363,4.3357,4.3368,4.3353,4.3337,4.3362,4.3331,4.3334,4.3371,4.338,4.3387,4.3391,4.3292,0,0,0,0,0,4.3527,4.3527,4.3495,4.351,4.3504,4.3473,4.3469,4.3448,4.3431,4.3425,4.3403,4.3388,4.3383,4.338,4.3373,4.3391,4.3385,4.3403,4.341,4.3416,4.342,4.343,4.3439,4.3351,4.3351,4.3351,0,0,4.3554,4.3535,4.3537,4.352,4.3507,4.3508,4.3468,4.347,4.347,4.3424,4.343,4.3414,4.3394,4.3407,4.3412,4.3395,4.3443,4.342,4.3426,4.3426,4.3435,4.3443,4.3451,4.3353,4.3353,4.3353,0,0,4.3605,4.359,4.3601,4.3589,4.357,4.3549,4.3552,4.3525,4.3513,4.3518,4.3485,4.3484,4.3475,4.3464,4.3457,4.3505,4.348,4.3504,4.3542,4.3553,4.356,4.3566,4.3585,4.3592,4.3507,4.3507,4.3507,0,4.3641,4.3642,4.361,4.3615,4.3609,4.357,4.3582,4.3571,4.355,4.3547,4.3529,4.3519,4.3503,4.3514,4.3526,4.3521,4.3524,4.3507,4.3561,4.3567,4.3572,4.359,4.3598,4.351,4.351,4.351,4.3509,0,4.3688,4.3689,4.3701,4.3684,4.3679,4.3687,4.3657,4.3656,4.3636,4.3617,4.3623,4.3603,4.3592,4.3593,4.3571,4.3601,4.3592,4.3568,4.3537,4.3584,4.3601,4.3607,4.3515,4.3514,4.3513,4.3512,0,0,4.3771,4.3738,4.3743,4.3735,4.3712,4.3712,4.3719,4.371,4.3711,4.3697,4.3704,4.3698,4.3677,4.3669,4.3646,4.3656,4.3698,4.3631,4.363,4.3646,4.3733,4.3752,4.3761,4.3681,4.3682,4.3683,4.3735,0,4.3819,4.383,4.3802,4.382,4.3822,4.3785,4.3791,4.3778,4.3761,4.3759,4.374,4.3738,4.3708,4.3704,4.3712,4.3692,4.3716,4.3687,4.3687,4.3688,4.3696,4.3769,4.3789,4.3839,4.3741,4.3742,4.3743,0,4.3876,4.3868,4.3887,4.3864,4.3864,4.387,4.3861,4.386,4.3844,4.3831,4.3824,4.3798,4.3804,4.3773,4.3781,4.3763,4.3761,4.3752,4.3753,4.3753,4.3719,4.3773,4.3854,4.3862,4.3752,4.3751,4.3751,0,4.3938,4.3931,4.3942,4.3937,4.391,4.3916,4.3905,4.3888,4.3885,4.3876,4.3874,4.3866,4.3862,4.3857,4.383,4.381,4.3843,4.3809,4.3833,4.3834,4.3843,4.3843,4.3927,4.3839,4.3839,4.3839,4.3838,0,4.3995,4.4009,4.397,4.3977,4.3992,4.3959,4.3975,4.396,4.3945,4.3949,4.3915,4.392,4.3883,4.3883,4.3862,4.3874,4.3871,4.3862,4.3857,4.3866,4.3868,4.3866,4.3863,4.384,4.384,4.384,4.3839,0,4.4067,4.4042,4.4052,4.4026,4.402,4.4032,4.401,4.4016,4.3997,4.4002,4.4002,4.3972,4.3971,4.3944,4.3936,4.3922,4.3944,4.393,4.395,4.3946,4.3973,4.3972,4.406,4.4071,4.3974,4.3975,4.3976,0,4.4107,4.4117,4.4093,4.4093,4.4084,4.4085,4.4083,4.4052,4.405,4.4034,4.4042,4.4039,4.4035,4.4035,4.4013,4.4008,4.3996,4.4027,4.3995,4.4005,4.3999,4.4,4.4002,4.4034,4.4036,4.4037,4.4037,0,4.418,4.4168,4.4165,4.416,4.4158,4.4151,4.4142,4.4145,4.4111,4.4111,4.411,4.4107,4.4101,4.4098,4.409,4.4078,4.4053,4.4048,4.4053,4.4064,4.4076,4.4073,4.397,4.4046,4.4045,4.4045,4.4044,4.4044,4.4239,4.4247,4.4232,4.4231,4.4221,4.4215,4.422,4.4202,4.4201,4.4194,4.4175,4.4179,4.4164,4.415,4.4141,4.4143,4.4127,4.4135,4.4137,4.414,4.4147,4.4074,4.4141,4.4141,4.414,4.414,4.414,0,4.4313,4.4302,4.4301,4.4291,4.4291,4.4267,4.4257,4.4258,4.4262,4.425,4.4247,4.4248,4.4246,4.4224,4.422,4.4226,4.4214,4.4226,4.4226,4.4225,4.416,4.4156,4.4235,4.4235,4.4235,4.4235,4.4235,4.4235,4.4352,4.4365,4.4351,4.4359,4.4347,4.4351,4.4347,4.4341,4.4332,4.4335,4.4333,4.4319,4.4304,4.4299,4.4296,4.429,4.4291,4.4307,4.4298,4.4238,4.4229,4.422,4.4217,4.4307,4.4307,4.4362,4.4363,4.4363]}]]